Location: Unspecified
(0.0000°N, 0.0000°E)
Time: 17:12:53
(UTC+00:00)

Vanguard 2 Rocket - All Passes

Search period start: 16 August 2017 00:00
Search period end: 26 August 2017 00:00
Orbit: 553 x 3328 km, 32.9° (Epoch: 15 August)

Date Brightness Start Highest point End Pass type
(mag) Time Alt. Az. Time Alt. Az. Time Alt. Az.
16 Aug - 01:59:02 10° SSW 02:05:10 28° SSE 02:09:21 10° E night (unlit)
16 Aug - 04:14:04 10° WSW 04:18:24 32° NW 04:21:58 10° NNE visible
16 Aug - 11:05:27 10° NNE 11:08:23 11° NNE 11:11:41 10° NE daylight
16 Aug - 13:13:19 10° NNW 13:25:06 44° NE 13:42:46 10° ESE daylight
16 Aug - 15:26:44 10° WNW 15:42:47 80° SW 16:03:31 10° SE daylight
16 Aug - 17:45:42 10° W 18:02:49 37° SSW 18:19:36 10° SSE daylight
16 Aug - 20:14:25 10° SW 20:24:53 16° SSW 20:33:43 10° SSE visible
16 Aug - 22:43:42 10° SSW 22:46:55 11° S 22:49:45 10° SSE visible
17 Aug - 00:58:46 10° SSW 01:05:07 21° SSE 01:09:36 10° ESE night (unlit)
17 Aug - 03:13:29 10° WSW 03:19:30 75° NW 03:23:37 10° NE visible
17 Aug - 12:14:52 10° NNW 12:24:13 30° NE 12:38:05 10° E daylight
17 Aug - 14:26:44 10° NW 14:40:52 82° NE 15:01:24 10° ESE daylight
17 Aug - 16:43:11 10° W 17:00:05 48° SSW 17:18:58 10° SE daylight
17 Aug - 19:07:56 10° WSW 19:21:47 22° SSW 19:33:58 10° SSE visible
17 Aug - 21:39:06 10° SSW 21:44:42 12° S 21:49:31 10° SSE visible
17 Aug - 23:58:01 10° SSW 00:04:34 17° SSE 00:09:24 10° SE night (unlit)
18 Aug - 02:12:56 10° SW 02:20:18 57° SSE 02:24:52 10° ENE night (unlit)
18 Aug - 04:30:39 10° WNW 04:32:58 14° NW 04:35:05 10° N visible
18 Aug - 11:17:18 10° N 11:23:37 18° NE 11:32:06 10° ENE daylight
18 Aug - 13:27:24 10° NW 13:39:30 62° NE 13:58:31 10° ESE daylight
18 Aug - 15:41:51 10° WNW 15:57:35 61° SSW 16:17:46 10° SE daylight
18 Aug - 18:02:58 10° WSW 18:18:35 28° SSW 18:33:43 10° SSE visible
18 Aug - 20:33:03 10° SW 20:41:51 15° S 20:49:18 10° SSE visible
18 Aug - 22:56:30 10° SSW 23:03:24 16° S 23:08:43 10° SE visible
19 Aug - 01:12:15 10° SW 01:20:36 37° SSE 01:25:45 10° E night (unlit)
19 Aug - 03:28:47 10° WSW 03:34:00 32° NW 03:37:48 10° NNE visible
19 Aug - 12:28:38 10° NNW 12:38:41 43° NE 12:54:47 10° ESE daylight
19 Aug - 14:41:27 10° WNW 14:55:28 76° SW 15:15:57 10° SE daylight
19 Aug - 16:59:35 10° W 17:15:32 36° SSW 17:33:00 10° SSE daylight
19 Aug - 19:26:42 10° SW 19:38:32 18° SSW 19:48:54 10° SSE visible
19 Aug - 21:53:52 10° SSW 22:01:33 15° S 22:07:40 10° SE visible
20 Aug - 00:11:14 10° SSW 00:20:23 28° SSE 00:26:13 10° E night (unlit)
20 Aug - 02:27:32 10° WSW 02:35:02 68° NW 02:39:39 10° NE night (unlit)
20 Aug - 11:30:31 10° NNW 11:38:20 27° NE 11:50:09 10° E daylight
20 Aug - 13:41:47 10° NW 13:53:55 84° NE 14:13:33 10° SE daylight
20 Aug - 15:57:34 10° W 16:12:46 45° SSW 16:31:49 10° SE daylight
20 Aug - 18:21:05 10° WSW 18:35:00 22° SSW 18:48:13 10° SSE visible
20 Aug - 20:49:54 10° SSW 20:58:57 15° S 21:06:24 10° SSE visible
20 Aug - 23:09:48 10° SSW 23:19:34 23° SSE 23:26:10 10° ESE visible
21 Aug - 01:26:20 10° SW 01:35:42 69° SSE 01:41:03 10° ENE night (unlit)
21 Aug - 03:45:27 10° WNW 03:48:26 14° NW 03:50:56 10° N visible
21 Aug - 10:33:32 10° N 10:38:13 15° NE 10:44:14 10° ENE daylight
21 Aug - 12:42:44 10° NW 12:53:01 62° NE 13:10:30 10° ESE daylight
21 Aug - 14:56:38 10° WNW 15:10:24 57° SSW 15:30:09 10° SE daylight
21 Aug - 17:16:50 10° WSW 17:31:34 27° SSW 17:47:12 10° SSE daylight
21 Aug - 19:44:51 10° SW 19:55:42 17° S 20:05:01 10° SSE visible
21 Aug - 22:07:46 10° SSW 22:18:05 20° SSE 22:25:31 10° ESE visible
22 Aug - 00:24:58 10° SW 00:35:49 47° SSE 00:42:03 10° E night (unlit)
22 Aug - 02:42:57 10° WSW 02:49:27 33° NW 02:53:48 10° NNE night (unlit)
22 Aug - 11:44:14 10° NNW 11:52:42 41° NE 12:06:49 10° ESE daylight
22 Aug - 13:56:34 10° WNW 14:08:36 73° SW 14:28:02 10° SE daylight
22 Aug - 16:14:01 10° W 16:28:26 34° SSW 16:45:51 10° SE daylight
22 Aug - 18:39:32 10° SW 18:51:59 19° S 19:03:32 10° SSE visible
22 Aug - 21:05:00 10° SSW 21:15:52 19° S 21:24:14 10° SE visible
22 Aug - 23:23:22 10° SW 23:35:20 35° SSE 23:42:33 10° E visible
23 Aug - 01:41:02 10° WSW 01:50:22 65° NW 01:55:44 10° NE night (unlit)
23 Aug - 10:46:25 10° NNW 10:52:49 25° NE 11:02:26 10° E daylight
23 Aug - 12:57:09 10° NW 13:07:28 87° NE 13:25:28 10° SE daylight
23 Aug - 15:12:26 10° W 15:25:46 42° SSW 15:44:11 10° SE daylight
23 Aug - 17:34:49 10° WSW 17:48:12 22° SSW 18:01:55 10° SSE daylight
23 Aug - 20:01:26 10° SSW 20:12:54 18° S 20:22:24 10° SE visible
23 Aug - 22:21:28 10° SSW 22:34:12 29° SSE 22:42:30 10° ESE visible
24 Aug - 00:39:11 10° SW 00:50:51 79° SSE 00:57:11 10° ENE night (unlit)
24 Aug - 02:59:35 10° W 03:03:47 17° NW 03:07:04 10° N night (unlit)
24 Aug - 09:50:13 10° NNE 09:53:05 12° NE 09:56:30 10° ENE daylight
24 Aug - 11:58:20 10° NW 12:07:00 62° NE 12:22:29 10° ESE daylight
24 Aug - 14:11:49 10° WNW 14:23:40 53° SSW 14:42:11 10° SE daylight
24 Aug - 16:31:16 10° WSW 16:44:39 26° SSW 17:00:08 10° SSE daylight
24 Aug - 18:57:16 10° SW 19:09:17 18° S 19:20:06 10° SE visible
24 Aug - 21:19:12 10° SSW 21:32:23 25° SSE 21:41:44 10° ESE visible
24 Aug - 23:37:17 10° SW 23:50:43 56° SSE 23:58:11 10° ENE visible
25 Aug - 01:56:32 10° WSW 02:04:43 35° NW 02:09:51 10° NNE night (unlit)
25 Aug - 11:00:02 10° NNW 11:07:08 39° NE 11:19:04 10° ESE daylight
25 Aug - 13:12:00 10° WNW 13:22:14 68° SSW 13:39:54 10° SE daylight
25 Aug - 15:28:57 10° WSW 15:41:37 31° SSW 15:58:12 10° SE daylight
25 Aug - 17:52:57 10° SW 18:05:20 19° S 18:17:36 10° SSE daylight
25 Aug - 20:16:33 10° SSW 20:29:49 22° SSE 20:40:10 10° ESE visible
25 Aug - 22:35:15 10° SW 22:49:54 42° SSE 22:58:39 10° E visible
